Location: Unspecified
(6.2147°S, 0.0000°E)
Time: 22:16:15
(UTC+00:00)

Oscar 19 - Visible Passes

Search period start: 04 April 2026 00:00
Search period end: 14 April 2026 00:00
Orbit: 769 x 787 km, 98.9° (Epoch: 29 March)

Date Brightness Start Highest point End Pass type
(mag) Time Alt. Az. Time Alt. Az. Time Alt. Az.
4 Apr 10.6 18:43:12 10° SSE 18:48:21 87° ENE 18:53:28 10° NNW visible
5 Apr 13.5 05:42:10 10° ENE 05:45:41 19° ESE 05:49:14 10° SSE visible
5 Apr 13.5 19:51:30 10° SW 19:54:15 15° WSW 19:57:01 10° WNW visible
6 Apr 12.1 19:16:43 10° S 19:21:25 37° WSW 19:26:04 10° NW visible
7 Apr 10.6 18:43:21 10° SSE 18:48:30 86° E 18:53:36 10° NNW visible
8 Apr 13.5 05:42:20 10° ENE 05:45:51 19° ESE 05:49:22 10° SSE visible
8 Apr 13.5 19:51:38 10° SW 19:54:24 15° WSW 19:57:11 10° WNW visible
9 Apr 12.1 19:16:52 10° S 19:21:34 37° WSW 19:26:13 10° NW visible
10 Apr 10.6 18:43:30 10° SSE 18:48:39 85° ENE 18:53:44 10° NNW visible
11 Apr 13.5 05:42:31 10° ENE 05:46:00 18° ESE 05:49:29 10° SSE visible
11 Apr 13.5 19:51:45 10° SW 19:54:33 15° WSW 19:57:21 10° WNW visible
12 Apr 12.1 19:17:00 10° S 19:21:42 37° WSW 19:26:22 10° NW visible
13 Apr 10.6 18:43:39 10° SSE 18:48:47 85° ENE 18:53:52 10° N visible
